CZ-2D DEB (45804 NORAD) Tracking and Keplerian Element Data

This shows tracking and keplerian element data for the satellite.

Feedback or suggestion? Click here.




ElementValue
Catalog45804
NameCZ-2D DEB
Epoch Orbit96
Epoch Day180.65905612
Epoch Year2020
RAAN324.6701
Inclination97.1754
Eccentricity0.0031148
Argument of Perigee57.659
Mean Anonmoly302.7652
Mean Motion15.16328159
Decay Rate7.61E-06
L11 45804U 20034C 20180.65905612 .00000761 00000-0 42027-4 0 9998
L22 45804 97.1754 324.6701 0031148 57.6590 302.7652 15.16328159 969

Live tracking and technical data element details for CZ-2D DEB (NORAD 45804). CZ-2D DEB can be tracked NOW for your location showing map with azimuth and elevation plus other details from your city location.

Track the satellite on the map from your city or location and see movement details for azimuth, elevation, latitude, longitude, range, height, and movement on the map or in text.







IsCatalogInMostPopularTable: catalog: 45804, numindb: 12
Update: records affected: 1



GetName: 45804 CZ-2D DEB

Hit Count: updated at: Sat, 08 Aug 2020 00:11:15 GMT